Portland, ME

8:18 AM EDT on October 21, 2017 (GMT -0400)
Portland International

Weather History for KPWM - February, 2012

Change the Weather History Date:

Sunday, February 5, 2012

  Actual Average Record
Temperature  
Mean Temperature 21 °F 23 °F  
Max Temperature 32 °F 33 °F 51 °F (2005)
Min Temperature 10 °F 14 °F -13 °F (1978)
Degree Days  
Heating Degree Days 44 42  
Month to date heating degree days 193 210  
Since 1 July heating degree days 3462 4146  
Cooling Degree Days 0 0  
Month to date cooling degree days 0 0  
Year to date cooling degree days 0 0  
Moisture  
Dew Point 9 °F    
Average Humidity 56    
Maximum Humidity 76    
Minimum Humidity 36    
Precipitation  
Precipitation 0.00 in 0.11 in 2.45 in (1920)
Month to date precipitation 0.05 0.54  
Year to date precipitation 4.34 3.92  
Snow  
Snow 0.00 in 0.50 in 12.70 in (2001)
Month to date snowfall 0.4 2.4  
Since 1 July snowfall 27.8 36.7  
Snow Depth 2.00 in    
Sea Level Pressure  
Sea Level Pressure 30.10 in    
Wind  
Wind Speed 7 mph (NNE)    
Max Wind Speed 14 mph    
Max Gust Speed 21 mph    
Visibility 10 miles    
Events      
T = Trace of Precipitation, MM = Missing Value Source: NWS Daily Summary

Daily Weather History Graph

Daily Weather History Graph

Search for Another Location

Airport or City:

Trip Planner

Search our weather history database for the weather conditions in past years. The results will help you decide how hot, cold, wet, or windy it might be!

Date:

Astronomy

Feb. 05, 2012 Rise Set
Actual Time 6:53 AM EST 4:57 PM EST
Civil Twilight 6:23 AM EST 5:27 PM EST
Nautical Twilight 5:49 AM EST 6:01 PM EST
Astronomical Twilight 5:16 AM EST 6:35 PM EST
Moon 2:50 PM EST (2/5) 5:05 AM EST (2/5)
Length of Visible Light 11h 03m
Length of Day
10h 03m
Waxing Gibbous, 94% of the Moon is Illuminated
Feb 5
Waxing Gibbous
Feb 7
Full
Feb 14
Last Quarter
Feb 21
New
Feb 29
First Quarter

Hourly Weather History & Observations

Time (EST) Temp. Windchill Dew Point Humidity Pressure Visibility Wind Dir Wind Speed Gust Speed Precip Events Conditions
12:51 AM 18.0 °F 7.7 °F 7.0 °F 62% 30.14 in 10.0 mi North 8.1 mph - N/A   Clear
1:51 AM 17.1 °F 3.6 °F 6.1 °F 62% 30.15 in 10.0 mi North 12.7 mph - N/A   Clear
2:51 AM 15.8 °F 4.2 °F 5.0 °F 62% 30.14 in 10.0 mi NNE 9.2 mph - N/A   Clear
3:51 AM 15.8 °F 10.2 °F 3.2 °F 58% 30.15 in 10.0 mi North 3.5 mph - N/A   Clear
4:51 AM 12.9 °F 3.8 °F 5.0 °F 71% 30.15 in 10.0 mi North 5.8 mph - N/A   Clear
5:51 AM 12.2 °F -1.0 °F 6.8 °F 79% 30.15 in 10.0 mi NNE 10.4 mph - N/A   Clear
6:51 AM 10.4 °F 0.8 °F 5.0 °F 79% 30.16 in 10.0 mi North 5.8 mph - N/A   Clear
7:51 AM 16.0 °F 4.4 °F 7.0 °F 68% 30.19 in 10.0 mi NNE 9.2 mph - N/A   Clear
8:51 AM 19.0 °F 9.0 °F 6.1 °F 57% 30.18 in 10.0 mi NNE 8.1 mph - N/A   Clear
9:51 AM 21.9 °F 13.4 °F 7.0 °F 53% 30.17 in 10.0 mi NNE 6.9 mph - N/A   Clear
10:51 AM 25.0 °F 16.3 °F 7.0 °F 46% 30.15 in 10.0 mi NNE 8.1 mph - N/A   Clear
11:51 AM 28.0 °F 20.8 °F 8.1 °F 43% 30.12 in 10.0 mi North 6.9 mph - N/A   Clear
12:51 PM 30.0 °F 24.1 °F 9.0 °F 41% 30.09 in 10.0 mi North 5.8 mph - N/A   Clear
1:51 PM 30.9 °F 23.5 °F 7.0 °F 37% 30.06 in 10.0 mi North 8.1 mph - N/A   Clear
2:51 PM 32.0 °F 25.6 °F 8.1 °F 37% 30.05 in 10.0 mi East 6.9 mph - N/A   Clear
3:51 PM 30.0 °F 23.2 °F 15.1 °F 54% 30.05 in 10.0 mi Variable 6.9 mph - N/A   Clear
4:51 PM 28.9 °F 22.8 °F 15.1 °F 56% 30.04 in 10.0 mi NE 5.8 mph - N/A   Clear
5:51 PM 28.0 °F 22.8 °F 14.0 °F 56% 30.05 in 10.0 mi NNE 4.6 mph - N/A   Clear
6:51 PM 27.0 °F 21.6 °F 12.9 °F 56% 30.04 in 10.0 mi NNE 4.6 mph - N/A   Clear
7:51 PM 27.0 °F 18.7 °F 10.9 °F 51% 30.06 in 10.0 mi NNW 8.1 mph - N/A   Clear
8:51 PM 25.0 °F 18.1 °F 10.0 °F 53% 30.06 in 10.0 mi North 5.8 mph - N/A   Clear
9:51 PM 23.0 °F 14.7 °F 10.0 °F 58% 30.04 in 10.0 mi NNE 6.9 mph - N/A   Clear
10:51 PM 23.0 °F 15.8 °F 10.9 °F 60% 30.03 in 10.0 mi North 5.8 mph - N/A   Clear
11:51 PM 24.1 °F 18.2 °F 10.9 °F 57% 30.01 in 10.0 mi NNE 4.6 mph - N/A   Clear